Stevens Point, WI

9:10 AM CST on December 06, 2019 (GMT -0600)
Stevens Point Municipal

Weather History for KSTE - August, 2019

Change the Weather History Date:

Wednesday, August 7, 2019

  Actual Average Record
Temperature  
Mean Temperature 70 °F -  
Max Temperature 83 °F 78 °F 95 °F (1949)
Min Temperature 56 °F 58 °F 44 °F (1975)
Cooling Degree Days 4    
Growing Degree Days 20 (Base 50)    
Moisture  
Dew Point 62 °F    
Average Humidity 84    
Maximum Humidity 100    
Minimum Humidity 48    
Precipitation  
Precipitation 0.45 in - - ()
Sea Level Pressure  
Sea Level Pressure 29.79 in    
Wind  
Wind Speed 4 mph (WSW)    
Max Wind Speed 26 mph    
Max Gust Speed 40 mph    
Visibility 10 miles    
Events Rain , Thunderstorm    
Averages and records for this station are not official NWS values.
T = Trace of Precipitation, MM = Missing Value Source: NWS Daily Summary

Daily Weather History Graph

Daily Weather History Graph

Search for Another Location

Airport or City:

Astronomy

Aug. 07, 2019 Rise Set
Actual Time 5:51 AM CDT 8:15 PM CDT
Civil Twilight 5:18 AM CDT 8:48 PM CDT
Nautical Twilight 4:38 AM CDT 9:28 PM CDT
Astronomical Twilight 3:52 AM CDT 10:14 PM CDT
Moon 1:41 PM CDT (8/7) No Moon Set
Length of Visible Light 15h 29m
Length of Day
14h 24m
Waxing Crescent, 50% of the Moon is Illuminated
Aug 7
Waxing Crescent
Aug 7
First Quarter
Aug 15
Full
Aug 23
Last Quarter
Aug 30
New

Hourly Weather History & Observations

Time (CDT) Temp. Heat Index Dew Point Humidity Pressure Visibility Wind Dir Wind Speed Gust Speed Precip Events Conditions
12:15 AM 59.0 °F - 59.0 °F 100% 29.84 in 10.0 mi Calm Calm - N/A   Clear
12:35 AM 59.0 °F - 59.0 °F 100% 29.84 in 10.0 mi Calm Calm - N/A   Clear
12:55 AM 58.3 °F - 58.3 °F 100% 29.84 in 10.0 mi Calm Calm - N/A   Clear
1:15 AM 58.5 °F - 58.5 °F 100% 29.83 in 10.0 mi Calm Calm - N/A   Clear
1:35 AM 57.4 °F - 57.4 °F 100% 29.84 in 10.0 mi Calm Calm - N/A   Clear
1:55 AM 58.1 °F - 58.1 °F 100% 29.83 in 10.0 mi Calm Calm - N/A   Clear
2:15 AM 57.6 °F - 57.6 °F 100% 29.83 in 10.0 mi Calm Calm - N/A   Clear
2:35 AM 58.3 °F - 58.3 °F 100% 29.84 in 10.0 mi Calm Calm - N/A   Scattered Clouds
2:55 AM 59.4 °F - 59.4 °F 100% 29.84 in 10.0 mi Calm Calm - N/A   Scattered Clouds
3:15 AM 59.2 °F - 59.2 °F 100% 29.84 in 10.0 mi Calm Calm - N/A   Clear
3:35 AM 58.5 °F - 58.5 °F 100% 29.83 in 10.0 mi Calm Calm - N/A   Clear
3:55 AM 58.3 °F - 58.3 °F 100% 29.83 in 10.0 mi Calm Calm - N/A   Scattered Clouds
4:15 AM 58.1 °F - 58.1 °F 100% 29.83 in 10.0 mi Calm Calm - N/A   Clear
4:35 AM 57.6 °F - 57.6 °F 100% 29.83 in 7.0 mi Calm Calm - N/A   Clear
4:55 AM 56.8 °F - 56.8 °F 100% 29.83 in 10.0 mi Calm Calm - N/A   Scattered Clouds
5:15 AM 57.4 °F - 57.4 °F 100% 29.83 in 10.0 mi Calm Calm - N/A   Mostly Cloudy
5:35 AM 58.1 °F - 58.1 °F 100% 29.83 in 10.0 mi Calm Calm - N/A   Scattered Clouds
5:55 AM 57.2 °F - 57.2 °F 100% 29.84 in 10.0 mi Calm Calm - N/A   Scattered Clouds
6:15 AM 57.2 °F - 57.2 °F 100% 29.83 in 10.0 mi Calm Calm - N/A   Scattered Clouds
6:35 AM 58.1 °F - 58.1 °F 100% 29.83 in 10.0 mi Calm Calm - N/A   Scattered Clouds
6:55 AM 60.4 °F - 60.4 °F 100% 29.83 in 10.0 mi Calm Calm - N/A   Clear
7:15 AM 63.3 °F - 63.1 °F 99% 29.83 in 10.0 mi SW 3.5 mph - N/A   Clear
7:35 AM 65.7 °F - 62.6 °F 90% 29.83 in 10.0 mi WSW 5.8 mph - N/A   Clear
7:55 AM 66.6 °F - 62.4 °F 86% 29.83 in 10.0 mi WSW 4.6 mph - N/A   Clear
8:15 AM 68.2 °F - 62.6 °F 82% 29.83 in 10.0 mi SW 3.5 mph - N/A   Clear
8:35 AM 70.0 °F - 62.6 °F 77% 29.83 in 10.0 mi West 4.6 mph - N/A   Scattered Clouds
8:55 AM 69.3 °F - 63.0 °F 80% 29.83 in 10.0 mi SW 4.6 mph - N/A   Mostly Cloudy
9:15 AM 71.6 °F - 62.8 °F 74% 29.82 in 10.0 mi WSW 5.8 mph - N/A   Scattered Clouds
9:35 AM 73.2 °F - 62.8 °F 70% 29.81 in 10.0 mi WSW 4.6 mph - N/A   Clear
9:55 AM 73.6 °F - 62.2 °F 68% 29.81 in 10.0 mi SSW 5.8 mph - N/A   Clear
10:15 AM 74.8 °F - 62.6 °F 66% 29.81 in 10.0 mi WSW 6.9 mph - N/A   Clear
10:35 AM 75.9 °F - 63.0 °F 64% 29.80 in 10.0 mi SSW 6.9 mph - N/A   Clear
10:55 AM 76.3 °F - 63.9 °F 65% 29.80 in 10.0 mi SW 6.9 mph - N/A   Clear
11:15 AM 76.6 °F - 64.0 °F 65% 29.80 in 10.0 mi SSW 9.2 mph - N/A   Clear
11:35 AM 76.8 °F - 64.6 °F 66% 29.80 in 10.0 mi SW 10.4 mph - N/A   Clear
11:55 AM 77.9 °F - 64.4 °F 63% 29.79 in 10.0 mi SSW 10.4 mph - N/A   Clear
12:15 PM 79.0 °F - 64.6 °F 61% 29.79 in 10.0 mi SW 10.4 mph 18.4 mph N/A   Clear
12:35 PM 80.2 °F 82.0 °F 64.6 °F 59% 29.78 in 10.0 mi SW 11.5 mph 18.4 mph N/A   Clear
12:55 PM 81.0 °F 82.5 °F 63.9 °F 56% 29.78 in 10.0 mi WSW 12.7 mph 18.4 mph N/A   Clear
1:15 PM 81.9 °F 82.8 °F 62.1 °F 51% 29.76 in 10.0 mi WSW 16.1 mph 20.7 mph N/A   Scattered Clouds
1:55 PM 81.9 °F 82.8 °F 61.9 °F 51% 29.75 in 10.0 mi SW 16.1 mph 23.0 mph N/A   Scattered Clouds
2:15 PM 82.6 °F 83.2 °F 61.5 °F 49% 29.75 in 10.0 mi West 17.3 mph 20.7 mph N/A   Scattered Clouds
2:35 PM 82.2 °F 83.0 °F 61.7 °F 50% 29.75 in 10.0 mi West 13.8 mph 20.7 mph N/A   Mostly Cloudy
2:55 PM 81.5 °F 82.5 °F 62.2 °F 52% 29.74 in 10.0 mi West 9.2 mph 18.4 mph N/A Thunderstorm Scattered Clouds
3:15 PM 83.5 °F 84.1 °F 61.7 °F 48% 29.73 in 10.0 mi West 12.7 mph 24.2 mph N/A   Mostly Cloudy
3:35 PM 82.9 °F 83.7 °F 62.1 °F 49% 29.72 in 10.0 mi WSW 15.0 mph 23.0 mph N/A   Scattered Clouds
3:55 PM 81.1 °F 82.0 °F 61.7 °F 51% 29.72 in 10.0 mi WSW 11.5 mph 20.7 mph N/A   Scattered Clouds
4:15 PM 63.5 °F - 60.4 °F 90% 29.75 in 1.0 mi SSW 11.5 mph 40.3 mph 0.23 in Rain , Thunderstorm Heavy Thunderstorms and Rain
4:35 PM 66.9 °F - 63.1 °F 88% 29.74 in 10.0 mi SW 6.9 mph - 0.25 in   Mostly Cloudy
5:15 PM 73.9 °F - 64.9 °F 73% 29.71 in 10.0 mi West 9.2 mph 17.3 mph N/A   Clear
5:35 PM 74.5 °F - 65.3 °F 73% 29.71 in 10.0 mi West 8.1 mph 17.3 mph N/A   Clear
5:55 PM 75.9 °F - 66.2 °F 72% 29.71 in 10.0 mi WSW 11.5 mph 19.6 mph N/A   Clear
6:15 PM 75.2 °F - 66.0 °F 73% 29.71 in 10.0 mi WSW 11.5 mph 16.1 mph N/A   Scattered Clouds
6:35 PM 74.1 °F - 64.8 °F 72% 29.78 in 10.0 mi NW 26.5 mph 35.7 mph N/A   Mostly Cloudy
6:55 PM 63.1 °F - 61.3 °F 94% 29.76 in 2.5 mi WNW 9.2 mph 26.5 mph 0.18 in Rain , Thunderstorm Heavy Thunderstorms and Rain
7:15 PM 63.5 °F - 63.5 °F 100% 29.75 in 10.0 mi WNW 5.8 mph - 0.01 in Rain , Thunderstorm Light Thunderstorms and Rain
7:35 PM 64.4 °F - 64.4 °F 100% 29.75 in 10.0 mi West 8.1 mph - 0.02 in   Scattered Clouds
7:55 PM 64.8 °F - 64.8 °F 100% 29.74 in 10.0 mi West 8.1 mph - 0.02 in Rain Light Rain
8:15 PM 64.8 °F - 64.8 °F 100% 29.74 in 10.0 mi WNW 5.8 mph - N/A   Scattered Clouds
8:35 PM 64.6 °F - 64.6 °F 100% 29.74 in 10.0 mi West 4.6 mph - N/A   Scattered Clouds
9:15 PM 63.9 °F - 63.9 °F 100% 29.75 in 10.0 mi WNW 3.5 mph - N/A   Clear
9:35 PM 63.9 °F - 63.9 °F 100% 29.76 in 10.0 mi Calm Calm - N/A   Clear
9:55 PM 63.9 °F - 63.9 °F 100% 29.77 in 10.0 mi Calm Calm - N/A   Clear
10:15 PM 63.3 °F - 63.3 °F 100% 29.76 in 10.0 mi SW 3.5 mph - N/A   Scattered Clouds
10:35 PM 63.7 °F - 63.7 °F 100% 29.78 in 10.0 mi West 3.5 mph - N/A   Scattered Clouds
10:55 PM 64.6 °F - 64.6 °F 100% 29.79 in 10.0 mi West 4.6 mph - N/A   Overcast
11:15 PM 64.8 °F - 64.8 °F 100% 29.79 in 10.0 mi West 4.6 mph - N/A   Overcast
11:35 PM 64.6 °F - 64.6 °F 100% 29.80 in 10.0 mi Calm Calm - N/A   Overcast
11:55 PM 63.9 °F - 63.9 °F 100% 29.80 in 10.0 mi Calm Calm - N/A   Mostly Cloudy